Location: Baix
(44.7118°N, 4.7648°E)
Time: 11:19:07
(UTC+00:00)

Envisat - Visible Passes

Search period start: 28 October 2020 00:00
Search period end: 07 November 2020 00:00
Orbit: 764 x 766 km, 98.1° (Epoch: 28 October)

Date Brightness Start Highest point End Pass type
(mag) Time Alt. Az. Time Alt. Az. Time Alt. Az.
28 Oct 5.6 04:45:09 10° NE 04:49:14 24° E 04:53:17 10° SE visible
28 Oct 5.2 17:40:35 10° SSW 17:44:58 29° W 17:49:22 10° NW visible
29 Oct 6.5 04:10:53 10° ENE 04:11:59 11° E 04:13:03 10° E visible
29 Oct 3.7 17:02:57 10° S 17:07:58 62° WSW 17:13:01 10° NNW visible
30 Oct 4.6 05:10:04 10° NNE 05:14:51 40° E 05:19:36 10° SSE visible
30 Oct 6.1 18:07:22 10° SW 18:10:38 17° W 18:13:55 10° NW visible
31 Oct 5.9 04:34:10 10° NE 04:37:45 19° E 04:41:18 10° SE visible
31 Oct 4.8 17:28:51 10° SSW 17:33:30 36° W 17:38:12 10° NNW visible
01 Nov 3.4 05:35:17 10° NNE 05:40:22 69° ESE 05:45:25 10° S visible
01 Nov 3.3 16:51:30 10° S 16:56:35 78° WSW 17:01:42 10° NNW visible
02 Nov 5.0 04:58:52 10° NNE 05:03:24 32° E 05:07:55 10° SSE visible
02 Nov 5.7 17:55:18 10° SW 17:59:09 21° W 18:03:00 10° NW visible
03 Nov 6.2 04:23:21 10° NE 04:26:15 15° E 04:29:07 10° SE visible
03 Nov 4.3 17:17:13 10° S 17:22:05 45° W 17:26:57 10° NNW visible
04 Nov 3.9 05:23:58 10° NNE 05:28:58 55° E 05:33:56 10° S visible
04 Nov 6.4 18:22:51 10° WSW 18:24:53 12° W 18:26:55 10° WNW visible
05 Nov 5.4 04:47:43 10° NE 04:51:57 26° E 04:56:08 10° SSE visible
05 Nov 5.3 17:43:25 10° SSW 17:47:40 27° W 17:51:57 10° NW visible
06 Nov 6.4 04:12:56 10° ENE 04:14:43 12° E 04:16:30 10° ESE visible
06 Nov 3.0 05:49:19 10° NNE 05:54:26 88° WNW 05:59:31 10° SSW visible
06 Nov 3.8 17:05:40 10° S 17:10:39 57° W 17:15:41 10° NNW visible
